SCP
0 0 0 0 0 0 0 0 0 0 0 0 0 0 0 0 0 0 0 0 0 0 0 0 0 0 0 0 0 0 0 0 0 0 0 0 0 0 0 0 0 0 0 0
0 0 0 0 0 0 0 0 0 0 0 0 -0 0 0 0 0 0 0 0 0 0 0 0 0 0 0 0 0 0 0 0 0 0 0 0 0 0 0 0 0 0 0 0
0 0 0 0 0 0 0 0 0 0 0 0 0 0 0 0 0 0 0 0 0 0 0 0 0 0 0 0 -0 -0 -0 -0 -0 -0 0 0 0 0 0 0 0 0 0 0
0 0 0 0 0 0 0 0 0 0 0 0 0 0 0 0 0 0 0 0 0 0 0 0 -0 -0 -0 -0 -0 -0 -0 -0 -0 -0 -0 -0 -0 0 0 0 0 0 0 0
0 0 0 0 0 0 0 0 0 0 0 0 0 0 0 0 0 0 0 0 0 0 0 0 -0 -0 -0 -0 -0 -0 -0 -0 -0 -0 -0 -0 -0 -0 -0 -0 0 0 0 0
0 0 0 0 0 0 0 0 0 0 0 0 0 0 0 0 0 0 0 0 0 0 -0 -0 -0 -0 -0 -0 -0 -0 -0 -0 -0 -0 -0 -0 -0 -0 -0 -0 -0 -0 0 0
0 0 0 0 0 0 0 0 0 0 0 0 0 0 0 0 0 0 0 0 -0 -0 -0 -0 -0 -0 -0 -0 -0 -0 -0 -0 -0 -0 -0 -0 -0 -0 -0 -0 -0 -0 -0 0
0 0 0 0 0 0 0 0 0 0 0 0 0 0 0 0 0 -0 -0 -0 -0 -0 -0 -0 -0 -0 -0 -0 0 -0 -0 -0 -0 -0 -0 -0 -0 -0 -0 -0 -0 -0 -0 -0
0 0 0 0 0 0 0 0 0 0 0 0 0 0 0 0 -0 -0 -0 -0 -0 -0 -0 -0 -0 -0 -0 -0 0 0 0 -0 -0 -0 -0 -0 -0 -0 -0 -0 -0 -0 -0 0
0 0 0 0 0 0 0 0 0 0 0 0 0 0 0 -0 -0 -0 -0 -0 -0 -0 -0 -0 0 0 0 0 0 0 0 0 0 -0 -0 -0 -0 -0 -0 -0 -0 -0 -0 0
0 0 0 0 0 0 0 0 0 0 0 0 -0 0 -0 -0 -0 0 0 0 0 -0 0 0 0 0 0 0 0 0 0 0 0 -0 -0 -0 -0 -0 -0 -0 -0 -0 0 0
0 0 0 0 0 0 0 0 0 0 0 0 0 0 0 0 0 -0 -0 -0 -0 0 0 0 0 0 0 0 0 0 0 0 0 -0 -0 -0 -0 -0 -0 -0 -0 -0 0 0
0 0 0 0 0 0 0 0 0 0 0 0 0 0 0 -0 -0 -0 -0 -0 -0 0 0 0 0 0 0 0 0 0 0 0 0 0 0 0 0 0 0 0 0 0 0 0
0 0 0 0 0 0 0 0 0 0 0 0 0 0 -0 -0 -0 -0 -0 -0 -0 0 0 0 0 0 0 0 0 0 0 0 0 0 0 0 0 0 0 0 0 -0 0 0
0 0 0 0 0 0 0 0 0 0 0 0 0 0 0 0 0 0 0 0 -0 -0 0 0 0 0 0 0 0 0 0 0 0 0 0 0 0 0 0 0 -0 -0 -0 -0
0 0 0 0 0 0 0 0 0 0 0 0 0 0 0 0 0 0 0 0 0 0 0 0 0 0 0 0 0 0 0 0 0 0 0 0 0 0 0 0 -0 -0 0 0
0 0 0 0 0 0 0 0 0 0 0 0 0 0 0 0 0 0 0 0 0 0 0 0 0 0 0 0 0 0 0 0 -0 -0 -0 0 0 -0 -0 -0 -0 0 0 0
0 0 0 0 0 0 0 0 0 0 0 0 0 0 0 0 0 0 0 0 0 0 0 0 0 0 0 0 0 0 0 -0 -0 -0 -0 -0 -0 -0 -0 -0 -0 0 0 0
0 0 0 0 0 0 0 0 0 0 0 0 0 0 0 0 0 0 0 0 0 0 0 0 0 0 0 0 0 0 0 0 0 -0 -0 0 -0 -0 -0 -0 -0 -0 0 0
0 0 0 0 0 0 0 0 0 0 0 0 0 0 0 0 0 0 0 0 -0 -0 0 0 0 0 0 0 0 0 0 0 0 0 0 0 0 0 0 0 0 0 0 0
0 0 0 0 0 0 0 0 0 0 0 0 0 0 0 0 0 0 0 0 0 0 0 0 0 0 0 0 0 0 0 0 0 0 0 0 0 0 0 0 0 0 0 0
0 0 0 0 0 0 0 0 0 0 0 0 0 0 0 0 0 0 0 -0 0 0 0 0 0 0 0 0 0 0 0 0 0 0 0 0 0 0 0 0 0 0 0 0
0 0 0 0 0 0 0 0 0 0 0 0 0 0 0 0 0 0 0 0 0 0 0 0 0 0 0 0 0 0 0 0 0 0 0 0 0 0 0 0 0 0 0 0
0 0 0 0 0 0 0 0 0 0 0 0 0 0 0 0 0 0 0 0 0 0 0 0 0 0 0 0 0 0 0 0 0 0 0 0 0 0 0 0 0 0 0 0
0 0 0 0 0 0 0 0 0 0 0 0 0 0 0 0 0 0 0 0 0 0 0 0 0 0 0 0 0 0 0 0 0 0 0 0 0 0 0 0 0 0 0 0
0 0 0 0 0 0 0 0 0 0 0 0 0 0 0 0 0 0 0 0 0 0 0 0 0 0 0 0 0 0 0 0 0 0 0 0 0 0 0 0 0 0 0 0
0 0 0 0 0 0 0 0 0 0 0 0 0 0 0 0 0 0 0 0 0 0 0 0 0 0 0 0 0 0 0 0 0 0 0 0 0 0 0 0 0 0 0 0
Wind_Speed_500mb
1 9 8 15 16 31 23 15 13 6 1 18 13 4 21 15 13 13 20 24 29 32 38 43 48 51 53 56 62 62 60 61 62 62 61 59 58 58 59 60 61 62 65 70
4 7 7 5 16 31 26 22 15 24 20 25 32 15 17 27 32 30 26 27 29 37 43 51 57 58 62 67 70 71 70 67 65 66 67 69 66 62 62 63 64 65 66 69
10 4 9 9 27 24 16 12 20 16 10 16 19 27 23 26 24 23 26 32 39 48 53 60 63 64 68 73 76 78 80 78 76 75 71 71 74 76 73 69 68 68 70 69
6 4 8 9 8 22 17 6 12 15 11 13 28 36 36 32 29 30 40 44 49 56 60 66 70 72 81 85 89 87 87 91 90 87 87 83 80 77 80 80 79 78 76 75
9 8 11 8 5 13 15 8 11 13 8 14 38 39 29 27 28 33 43 47 54 59 66 69 74 82 91 95 97 99 104 103 97 98 99 97 94 91 86 85 84 84 83 82
5 10 16 12 3 16 6 5 11 19 15 16 16 7 5 33 36 41 48 53 61 66 71 75 81 87 92 95 98 101 102 104 109 108 103 106 105 101 95 92 93 91 90 89
7 6 13 10 14 11 12 7 21 23 18 21 9 4 23 34 39 47 53 59 63 74 78 81 83 84 87 92 95 99 105 108 110 110 111 108 103 101 104 103 99 97 97 94
6 3 15 19 6 9 14 18 24 21 17 12 5 13 24 36 48 56 65 72 79 85 87 86 85 86 88 87 90 95 101 108 111 111 110 107 108 106 99 102 103 102 100 100
9 7 10 19 26 19 21 24 13 12 9 10 9 17 29 40 45 50 58 68 73 83 87 88 87 83 88 90 91 94 95 99 105 109 109 107 106 106 103 98 102 106 104 103
10 9 15 19 22 22 20 18 10 9 12 16 21 24 32 38 46 55 61 70 77 80 82 84 81 79 76 80 83 87 93 95 98 102 105 105 105 105 104 102 97 96 93 91
8 13 17 7 17 16 14 9 7 12 16 20 22 26 34 41 46 52 57 59 62 66 69 70 69 68 68 71 77 85 88 90 93 97 100 103 101 100 100 99 81 84 89 87
7 38 9 18 30 20 13 5 8 12 15 19 24 29 34 37 39 41 45 49 53 56 59 62 64 64 65 65 67 76 84 86 87 89 92 94 97 105 93 91 81 66 71 77
16 34 30 43 27 15 5 6 7 11 15 19 24 27 30 32 35 37 38 42 47 51 52 57 61 64 66 68 70 74 79 79 81 82 87 90 90 91 102 97 81 77 69 72
44 41 27 26 15 10 7 8 11 15 17 19 19 22 26 29 31 33 37 41 45 47 51 56 60 64 66 69 71 72 73 75 78 80 77 78 79 81 83 91 97 99 77 76
28 14 27 31 21 17 14 15 16 16 15 14 15 17 20 23 28 32 33 35 39 43 49 53 58 62 65 67 69 70 72 73 75 77 75 72 72 71 71 71 75 78 71 67
29 25 29 26 24 21 20 20 17 15 14 15 16 17 19 20 24 27 30 33 44 51 51 54 56 59 62 64 66 69 70 70 71 73 75 76 75 75 75 72 70 70 68 63
34 28 29 30 28 25 21 20 18 17 17 15 15 17 18 18 18 20 26 33 37 40 43 48 53 55 59 60 61 63 64 64 65 67 70 72 73 75 74 72 71 70 67 63
22 24 28 26 29 26 24 21 18 17 15 13 12 13 15 18 24 28 33 34 34 33 39 42 46 50 52 56 58 59 59 60 60 61 62 65 67 69 71 72 72 73 69 64
24 25 29 30 29 27 23 19 15 12 10 8 8 12 19 22 24 26 29 31 35 39 42 44 46 49 51 53 56 57 58 60 61 61 62 63 65 67 70 70 69 69 71 70
27 29 29 28 25 21 17 14 9 6 2 4 9 13 17 20 22 23 26 30 35 39 43 45 47 49 51 52 54 55 55 57 60 62 64 65 65 66 65 65 67 67 67 67
30 28 26 24 22 18 14 10 6 2 5 10 13 15 18 20 21 22 24 25 30 34 40 43 47 49 49 52 53 53 55 57 59 61 62 64 65 64 64 65 64 64 65 64
30 28 25 23 20 16 12 8 6 8 12 16 19 19 17 18 17 18 25 29 32 35 38 41 43 44 46 49 51 53 54 54 56 57 59 60 61 63 64 64 65 65 64 61
27 27 26 22 18 14 13 11 11 13 15 17 19 20 19 19 21 22 21 28 31 33 35 38 41 43 46 49 52 54 55 58 59 59 58 58 58 59 60 61 61 61 61 60
30 28 24 22 20 19 18 16 16 16 18 20 21 22 21 18 20 23 27 29 31 32 35 39 41 43 46 49 51 52 54 56 58 58 59 57 56 56 56 58 59 60 60 59
29 28 28 26 24 23 21 18 18 19 20 21 21 21 23 25 26 27 29 30 32 34 35 39 42 45 47 50 53 56 58 60 61 61 61 61 61 62 61 60 59 59 59 59
33 30 28 28 26 24 22 20 20 21 19 19 23 21 23 25 26 27 27 29 30 32 35 38 41 44 46 49 51 53 55 57 58 60 61 61 61 61 62 62 62 62 62 62
35 34 32 30 26 24 24 23 21 23 21 19 18 23 23 24 25 26 28 29 31 34 37 40 42 44 47 50 52 54 55 56 56 58 59 60 61 61 62 63 62 63 64 65
Wind_Direction_500mb
147 169 145 194 184 184 192 185 146 196 330 294 279 261 293 92 119 94 66 53 43 33 22 14 7 0 356 352 349 347 346 343 338 333 331 327 324 320 307 298 294 289 278 272
116 140 131 165 193 196 200 196 196 209 214 181 249 193 94 89 93 82 66 42 21 16 8 2 358 352 349 346 343 341 338 334 333 329 325 322 322 318 319 313 301 294 290 282
185 220 92 282 222 199 198 201 204 206 192 155 149 124 96 84 74 61 36 18 6 359 355 352 349 346 341 338 335 334 332 330 328 325 324 321 318 316 316 314 313 306 297 291
168 84 199 242 309 213 212 80 41 75 36 16 113 104 82 61 40 19 9 3 353 348 346 345 342 338 333 332 330 328 326 324 324 323 321 318 317 316 311 310 309 308 308 301
167 190 294 305 157 148 166 190 34 118 76 74 132 113 67 32 18 2 355 346 342 339 338 336 334 330 328 327 325 324 322 321 319 318 316 316 314 313 313 309 304 303 302 301
84 143 208 232 207 347 131 233 60 93 43 5 196 212 102 351 346 342 340 337 335 334 334 331 328 325 323 321 321 319 317 315 314 314 313 312 311 310 308 308 306 301 298 298
172 205 283 269 324 327 130 179 108 95 66 38 89 8 309 319 323 328 331 333 335 333 332 330 327 324 320 318 318 317 314 311 310 310 311 311 309 307 307 304 302 301 297 295
116 129 268 8 320 195 119 102 115 102 88 89 17 321 318 328 334 337 336 334 332 332 331 331 329 325 321 319 316 310 307 306 307 308 310 310 308 307 305 303 302 299 300 295
187 192 72 37 98 97 151 139 126 104 68 34 9 338 335 336 339 335 334 334 334 332 330 330 330 328 323 321 317 312 309 306 306 306 307 308 308 307 306 304 302 300 300 298
142 161 132 113 108 110 113 110 96 39 18 7 357 349 343 342 339 338 337 336 335 334 332 332 331 331 330 325 322 317 314 312 311 309 308 307 306 306 305 304 302 299 296 294
88 121 117 149 152 138 124 109 56 17 5 2 0 352 347 345 343 342 340 338 340 341 339 338 337 337 333 330 327 324 322 322 319 317 315 312 310 309 307 303 301 296 292 289
195 163 133 143 165 155 147 83 23 10 10 5 358 355 353 353 351 349 351 350 349 348 346 345 346 346 344 342 339 337 333 333 330 327 324 322 319 312 310 308 308 301 289 286
139 134 126 148 151 149 121 70 41 41 24 18 12 11 9 9 9 8 4 1 359 358 353 350 350 353 350 350 350 347 342 342 340 339 337 333 331 328 322 316 317 312 305 299
134 133 115 157 156 147 120 95 83 68 50 43 36 31 29 24 20 17 15 9 4 1 0 357 355 354 352 353 352 351 350 352 350 345 342 340 335 332 328 323 318 319 316 308
145 152 142 152 148 139 130 114 103 92 79 66 52 41 35 28 24 21 15 7 5 3 359 359 355 354 351 353 353 353 354 356 355 355 353 349 346 341 338 334 331 329 321 320
148 144 144 147 142 141 139 132 124 108 96 75 58 46 35 25 23 18 11 6 5 3 354 355 353 349 349 349 352 353 354 356 357 358 1 1 359 356 352 350 348 346 342 335
150 152 157 157 157 151 144 128 115 100 81 64 49 36 29 26 15 5 1 5 2 357 348 351 348 348 348 349 350 350 350 354 356 359 2 4 6 6 4 2 0 359 357 352
189 172 167 163 153 143 134 128 120 107 93 72 46 20 358 353 355 0 357 354 353 355 351 356 349 351 351 352 353 351 351 352 355 359 1 3 5 7 9 9 9 8 6 5
171 161 154 150 149 149 149 142 129 115 87 55 15 349 345 344 347 349 351 349 351 352 355 355 352 350 350 354 353 353 354 355 357 359 360 360 2 5 6 8 9 11 12 12
171 163 155 153 154 155 155 149 137 117 79 350 336 329 323 333 344 345 352 353 356 353 348 347 348 348 350 352 351 351 352 354 356 358 360 0 1 360 360 2 5 7 9 11
172 168 164 163 163 164 166 169 176 214 297 307 314 323 329 333 341 344 342 349 346 345 343 345 346 346 350 351 350 351 353 354 356 358 357 357 357 358 359 0 360 1 2 4
177 175 175 178 184 189 196 207 237 276 297 308 315 321 322 323 336 344 342 341 341 341 342 344 344 345 348 348 347 350 352 353 354 355 355 355 354 353 354 355 355 357 358 357
182 184 188 193 202 212 219 234 255 274 290 300 307 312 317 324 330 335 341 336 337 339 340 342 340 343 345 345 346 347 348 350 351 352 352 351 350 350 350 351 351 351 351 352
192 196 200 209 214 220 229 243 262 281 293 302 308 309 314 318 320 327 334 333 334 334 337 339 339 339 339 341 342 344 345 345 345 346 346 345 345 345 346 345 345 345 346 346
202 212 219 219 219 222 232 248 265 281 292 298 299 302 307 314 321 326 329 331 330 332 335 334 335 336 337 338 339 340 342 342 342 341 341 341 341 341 341 341 341 341 340 340
220 227 229 227 227 231 238 250 265 278 283 284 286 292 298 304 310 314 317 318 323 328 329 330 331 332 334 335 336 337 337 337 336 336 336 336 336 335 335 336 337 338 338 337
227 231 234 234 237 240 245 256 268 279 285 279 272 283 291 298 304 311 315 321 326 327 329 329 329 331 333 334 335 335 335 335 334 333 332 331 331 331 331 331 332 333 333 333
Wind_Speed_850mb
1 9 8 15 16 31 23 15 13 6 1 18 13 4 21 15 13 13 20 24 29 32 38 43 48 51 53 56 62 62 60 61 62 62 61 59 58 58 59 60 61 62 65 70
4 7 7 5 16 31 26 22 15 24 20 25 32 15 17 27 32 30 26 27 29 37 43 51 57 58 62 67 70 71 70 67 65 66 67 69 66 62 62 63 64 65 66 69
10 4 9 9 27 24 16 12 20 16 10 16 19 27 23 26 24 23 26 32 39 48 53 60 63 64 68 73 76 78 80 78 76 75 71 71 74 76 73 69 68 68 70 69
6 4 8 9 8 22 17 6 12 15 11 13 28 36 36 32 29 30 40 44 49 56 60 66 70 72 81 85 89 87 87 91 90 87 87 83 80 77 80 80 79 78 76 75
9 8 11 8 5 13 15 8 11 13 8 14 38 39 29 27 28 33 43 47 54 59 66 69 74 82 91 95 97 99 104 103 97 98 99 97 94 91 86 85 84 84 83 82
5 10 16 12 3 16 6 5 11 19 15 16 16 7 5 33 36 41 48 53 61 66 71 75 81 87 92 95 98 101 102 104 109 108 103 106 105 101 95 92 93 91 90 89
7 6 13 10 14 11 12 7 21 23 18 21 9 4 23 34 39 47 53 59 63 74 78 81 83 84 87 92 95 99 105 108 110 110 111 108 103 101 104 103 99 97 97 94
6 3 15 19 6 9 14 18 24 21 17 12 5 13 24 36 48 56 65 72 79 85 87 86 85 86 88 87 90 95 101 108 111 111 110 107 108 106 99 102 103 102 100 100
9 7 10 19 26 19 21 24 13 12 9 10 9 17 29 40 45 50 58 68 73 83 87 88 87 83 88 90 91 94 95 99 105 109 109 107 106 106 103 98 102 106 104 103
10 9 15 19 22 22 20 18 10 9 12 16 21 24 32 38 46 55 61 70 77 80 82 84 81 79 76 80 83 87 93 95 98 102 105 105 105 105 104 102 97 96 93 91
8 13 17 7 17 16 14 9 7 12 16 20 22 26 34 41 46 52 57 59 62 66 69 70 69 68 68 71 77 85 88 90 93 97 100 103 101 100 100 99 81 84 89 87
7 38 9 18 30 20 13 5 8 12 15 19 24 29 34 37 39 41 45 49 53 56 59 62 64 64 65 65 67 76 84 86 87 89 92 94 97 105 93 91 81 66 71 77
16 34 30 43 27 15 5 6 7 11 15 19 24 27 30 32 35 37 38 42 47 51 52 57 61 64 66 68 70 74 79 79 81 82 87 90 90 91 102 97 81 77 69 72
44 41 27 26 15 10 7 8 11 15 17 19 19 22 26 29 31 33 37 41 45 47 51 56 60 64 66 69 71 72 73 75 78 80 77 78 79 81 83 91 97 99 77 76
28 14 27 31 21 17 14 15 16 16 15 14 15 17 20 23 28 32 33 35 39 43 49 53 58 62 65 67 69 70 72 73 75 77 75 72 72 71 71 71 75 78 71 67
29 25 29 26 24 21 20 20 17 15 14 15 16 17 19 20 24 27 30 33 44 51 51 54 56 59 62 64 66 69 70 70 71 73 75 76 75 75 75 72 70 70 68 63
34 28 29 30 28 25 21 20 18 17 17 15 15 17 18 18 18 20 26 33 37 40 43 48 53 55 59 60 61 63 64 64 65 67 70 72 73 75 74 72 71 70 67 63
22 24 28 26 29 26 24 21 18 17 15 13 12 13 15 18 24 28 33 34 34 33 39 42 46 50 52 56 58 59 59 60 60 61 62 65 67 69 71 72 72 73 69 64
24 25 29 30 29 27 23 19 15 12 10 8 8 12 19 22 24 26 29 31 35 39 42 44 46 49 51 53 56 57 58 60 61 61 62 63 65 67 70 70 69 69 71 70
27 29 29 28 25 21 17 14 9 6 2 4 9 13 17 20 22 23 26 30 35 39 43 45 47 49 51 52 54 55 55 57 60 62 64 65 65 66 65 65 67 67 67 67
30 28 26 24 22 18 14 10 6 2 5 10 13 15 18 20 21 22 24 25 30 34 40 43 47 49 49 52 53 53 55 57 59 61 62 64 65 64 64 65 64 64 65 64
30 28 25 23 20 16 12 8 6 8 12 16 19 19 17 18 17 18 25 29 32 35 38 41 43 44 46 49 51 53 54 54 56 57 59 60 61 63 64 64 65 65 64 61
27 27 26 22 18 14 13 11 11 13 15 17 19 20 19 19 21 22 21 28 31 33 35 38 41 43 46 49 52 54 55 58 59 59 58 58 58 59 60 61 61 61 61 60
30 28 24 22 20 19 18 16 16 16 18 20 21 22 21 18 20 23 27 29 31 32 35 39 41 43 46 49 51 52 54 56 58 58 59 57 56 56 56 58 59 60 60 59
29 28 28 26 24 23 21 18 18 19 20 21 21 21 23 25 26 27 29 30 32 34 35 39 42 45 47 50 53 56 58 60 61 61 61 61 61 62 61 60 59 59 59 59
33 30 28 28 26 24 22 20 20 21 19 19 23 21 23 25 26 27 27 29 30 32 35 38 41 44 46 49 51 53 55 57 58 60 61 61 61 61 62 62 62 62 62 62
35 34 32 30 26 24 24 23 21 23 21 19 18 23 23 24 25 26 28 29 31 34 37 40 42 44 47 50 52 54 55 56 56 58 59 60 61 61 62 63 62 63 64 65
Wind_Direction_850mb
147 169 145 194 184 184 192 185 146 196 330 294 279 261 293 92 119 94 66 53 43 33 22 14 7 0 356 352 349 347 346 343 338 333 331 327 324 320 307 298 294 289 278 272
116 140 131 165 193 196 200 196 196 209 214 181 249 193 94 89 93 82 66 42 21 16 8 2 358 352 349 346 343 341 338 334 333 329 325 322 322 318 319 313 301 294 290 282
185 220 92 282 222 199 198 201 204 206 192 155 149 124 96 84 74 61 36 18 6 359 355 352 349 346 341 338 335 334 332 330 328 325 324 321 318 316 316 314 313 306 297 291
168 84 199 242 309 213 212 80 41 75 36 16 113 104 82 61 40 19 9 3 353 348 346 345 342 338 333 332 330 328 326 324 324 323 321 318 317 316 311 310 309 308 308 301
167 190 294 305 157 148 166 190 34 118 76 74 132 113 67 32 18 2 355 346 342 339 338 336 334 330 328 327 325 324 322 321 319 318 316 316 314 313 313 309 304 303 302 301
84 143 208 232 207 347 131 233 60 93 43 5 196 212 102 351 346 342 340 337 335 334 334 331 328 325 323 321 321 319 317 315 314 314 313 312 311 310 308 308 306 301 298 298
172 205 283 269 324 327 130 179 108 95 66 38 89 8 309 319 323 328 331 333 335 333 332 330 327 324 320 318 318 317 314 311 310 310 311 311 309 307 307 304 302 301 297 295
116 129 268 8 320 195 119 102 115 102 88 89 17 321 318 328 334 337 336 334 332 332 331 331 329 325 321 319 316 310 307 306 307 308 310 310 308 307 305 303 302 299 300 295
187 192 72 37 98 97 151 139 126 104 68 34 9 338 335 336 339 335 334 334 334 332 330 330 330 328 323 321 317 312 309 306 306 306 307 308 308 307 306 304 302 300 300 298
142 161 132 113 108 110 113 110 96 39 18 7 357 349 343 342 339 338 337 336 335 334 332 332 331 331 330 325 322 317 314 312 311 309 308 307 306 306 305 304 302 299 296 294
88 121 117 149 152 138 124 109 56 17 5 2 0 352 347 345 343 342 340 338 340 341 339 338 337 337 333 330 327 324 322 322 319 317 315 312 310 309 307 303 301 296 292 289
195 163 133 143 165 155 147 83 23 10 10 5 358 355 353 353 351 349 351 350 349 348 346 345 346 346 344 342 339 337 333 333 330 327 324 322 319 312 310 308 308 301 289 286
139 134 126 148 151 149 121 70 41 41 24 18 12 11 9 9 9 8 4 1 359 358 353 350 350 353 350 350 350 347 342 342 340 339 337 333 331 328 322 316 317 312 305 299
134 133 115 157 156 147 120 95 83 68 50 43 36 31 29 24 20 17 15 9 4 1 0 357 355 354 352 353 352 351 350 352 350 345 342 340 335 332 328 323 318 319 316 308
145 152 142 152 148 139 130 114 103 92 79 66 52 41 35 28 24 21 15 7 5 3 359 359 355 354 351 353 353 353 354 356 355 355 353 349 346 341 338 334 331 329 321 320
148 144 144 147 142 141 139 132 124 108 96 75 58 46 35 25 23 18 11 6 5 3 354 355 353 349 349 349 352 353 354 356 357 358 1 1 359 356 352 350 348 346 342 335
150 152 157 157 157 151 144 128 115 100 81 64 49 36 29 26 15 5 1 5 2 357 348 351 348 348 348 349 350 350 350 354 356 359 2 4 6 6 4 2 0 359 357 352
189 172 167 163 153 143 134 128 120 107 93 72 46 20 358 353 355 0 357 354 353 355 351 356 349 351 351 352 353 351 351 352 355 359 1 3 5 7 9 9 9 8 6 5
171 161 154 150 149 149 149 142 129 115 87 55 15 349 345 344 347 349 351 349 351 352 355 355 352 350 350 354 353 353 354 355 357 359 360 360 2 5 6 8 9 11 12 12
171 163 155 153 154 155 155 149 137 117 79 350 336 329 323 333 344 345 352 353 356 353 348 347 348 348 350 352 351 351 352 354 356 358 360 0 1 360 360 2 5 7 9 11
172 168 164 163 163 164 166 169 176 214 297 307 314 323 329 333 341 344 342 349 346 345 343 345 346 346 350 351 350 351 353 354 356 358 357 357 357 358 359 0 360 1 2 4
177 175 175 178 184 189 196 207 237 276 297 308 315 321 322 323 336 344 342 341 341 341 342 344 344 345 348 348 347 350 352 353 354 355 355 355 354 353 354 355 355 357 358 357
182 184 188 193 202 212 219 234 255 274 290 300 307 312 317 324 330 335 341 336 337 339 340 342 340 343 345 345 346 347 348 350 351 352 352 351 350 350 350 351 351 351 351 352
192 196 200 209 214 220 229 243 262 281 293 302 308 309 314 318 320 327 334 333 334 334 337 339 339 339 339 341 342 344 345 345 345 346 346 345 345 345 346 345 345 345 346 346
202 212 219 219 219 222 232 248 265 281 292 298 299 302 307 314 321 326 329 331 330 332 335 334 335 336 337 338 339 340 342 342 342 341 341 341 341 341 341 341 341 341 340 340
220 227 229 227 227 231 238 250 265 278 283 284 286 292 298 304 310 314 317 318 323 328 329 330 331 332 334 335 336 337 337 337 336 336 336 336 336 335 335 336 337 338 338 337
227 231 234 234 237 240 245 256 268 279 285 279 272 283 291 298 304 311 315 321 326 327 329 329 329 331 333 334 335 335 335 335 334 333 332 331 331 331 331 331 332 333 333 333